Date String (YYYY-MM-DD hh:mm:ss) UTC,Instrument flags,Ambient pressure (hPa),Sample flow (lpm),Bypass flow (lpm),Sample temperature (°C),Ambient temperature (°C),ASC tube jacket temperature (°C),LED temperature (°C),Box temperature (°C),Sample RH (%),Mass concentration (μg/m³),Mass concentration (μg/m³)
DateTimeUTC,F1_M11,P_M11,Q1_M11,Q2_M11,T1_M11,T2_M11,T3_M11,T4_M11,T5_M11,U1_M11,X0_M11,X2_M11
2021-08-11 08:00:00,FlowAlarm;OPCInstrumentWarning,0827.8,5.01,0.00,29.7,28.9,00.0,38.7,31.7,13.7,0048.44,0035.81
2021-08-11 08:01:00,FlowAlarm;OPCInstrumentWarning,0827.8,5.01,0.00,29.7,28.8,00.0,38.7,31.6,13.6,0048.77,0035.82
2021-08-11 08:02:00,FlowAlarm;OPCInstrumentWarning,0827.8,4.99,0.00,29.7,27.1,00.0,38.7,31.3,13.6,0048.31,0035.85
2021-08-11 08:03:00,FlowAlarm;OPCInstrumentWarning,0827.7,5.01,0.00,29.5,25.5,00.0,38.7,30.9,13.8,0048.38,0035.89
2021-08-11 08:04:00,FlowAlarm;OPCInstrumentWarning,0827.7,4.99,0.00,29.4,25.5,00.0,38.6,30.9,13.9,0048.82,0036.00
2021-08-11 08:05:00,FlowAlarm;OPCInstrumentWarning,0827.7,5.02,0.00,29.3,25.9,00.0,38.6,30.9,14.0,0049.20,0036.06
2021-08-11 08:06:00,FlowAlarm;OPCInstrumentWarning,0827.7,4.99,0.00,29.2,26.4,00.0,38.5,30.9,14.0,0049.11,0036.06
2021-08-11 08:07:00,FlowAlarm;OPCInstrumentWarning,0827.8,5.01,0.00,29.1,26.8,00.0,38.5,30.9,13.9,0049.05,0036.03
2021-08-11 08:08:00,FlowAlarm;OPCInstrumentWarning,0827.7,5.00,0.00,29.1,27.2,00.0,38.5,31.0,14.1,0048.78,0035.91
2021-08-11 08:09:00,FlowAlarm;OPCInstrumentWarning,0827.8,5.00,0.00,29.1,27.5,00.0,38.5,31.1,14.3,0048.17,0035.83
2021-08-11 08:10:00,FlowAlarm;OPCInstrumentWarning,0827.8,5.01,0.00,29.2,27.7,00.0,38.5,31.1,14.5,0047.41,0035.79
2021-08-11 08:11:00,FlowAlarm;OPCInstrumentWarning,0827.8,5.01,0.00,29.2,27.9,00.0,38.5,31.2,14.4,0047.02,0035.68
2021-08-11 08:12:00,FlowAlarm;OPCInstrumentWarning,0827.8,4.99,0.00,29.2,28.1,00.0,38.5,31.2,14.4,0046.96,0035.65
2021-08-11 08:13:00,FlowAlarm;OPCInstrumentWarning,0827.8,4.99,0.00,29.3,28.2,00.0,38.5,31.3,14.4,0047.67,0035.59
2021-08-11 08:14:00,FlowAlarm;OPCInstrumentWarning,0827.9,5.00,0.00,29.3,28.3,00.0,38.5,31.3,14.5,0047.62,0035.50
2021-08-11 08:15:00,FlowAlarm;OPCInstrumentWarning,0827.8,5.01,0.00,29.3,28.4,00.0,38.5,31.4,14.6,0046.89,0035.36
2021-08-11 08:16:00,FlowAlarm;OPCInstrumentWarning,0827.8,5.00,0.00,29.4,28.5,00.0,38.5,31.4,14.8,0046.53,0035.16
2021-08-11 08:17:00,FlowAlarm;OPCInstrumentWarning,0827.8,4.98,0.00,29.4,28.6,00.0,38.5,31.4,14.6,0046.72,0035.06
2021-08-11 08:18:00,FlowAlarm;OPCInstrumentWarning,0827.7,4.99,0.00,29.5,28.7,00.0,38.5,31.5,14.5,0046.75,0035.04
2021-08-11 08:19:00,FlowAlarm;OPCInstrumentWarning,0827.8,5.01,0.00,29.5,28.7,00.0,38.6,31.5,14.5,0046.61,0034.96
2021-08-11 08:20:00,FlowAlarm;OPCInstrumentWarning,0827.9,5.01,0.00,29.6,28.8,00.0,38.6,31.6,14.5,0046.75,0034.96
2021-08-11 08:21:00,FlowAlarm;OPCInstrumentWarning,0827.9,4.99,0.00,29.6,28.9,00.0,38.6,31.6,14.3,0046.78,0034.96
2021-08-11 08:22:00,FlowAlarm;OPCInstrumentWarning,0827.9,5.01,0.00,29.7,28.9,00.0,38.7,31.7,14.1,0046.78,0035.00
2021-08-11 08:23:00,FlowAlarm;OPCInstrumentWarning,0827.9,4.98,0.00,29.7,29.0,00.0,38.7,31.7,14.0,0046.61,0035.01
2021-08-11 08:24:00,FlowAlarm;OPCInstrumentWarning,0827.8,5.01,0.00,29.7,29.0,00.0,38.7,31.7,14.0,0046.17,0035.00
2021-08-11 08:25:00,FlowAlarm;OPCInstrumentWarning,0827.9,5.01,0.00,29.8,29.0,00.0,38.7,31.8,14.0,0046.26,0034.98
2021-08-11 08:26:00,FlowAlarm;OPCInstrumentWarning,0827.9,4.99,0.00,29.8,28.3,00.0,38.8,31.6,13.7,0046.08,0034.93
2021-08-11 08:27:00,FlowAlarm;OPCInstrumentWarning,0827.9,5.00,0.00,29.7,26.2,00.0,38.7,31.0,13.8,0046.47,0034.97
2021-08-11 08:28:00,FlowAlarm;OPCInstrumentWarning,0827.8,5.01,0.00,29.5,25.4,00.0,38.7,30.7,14.1,0046.36,0034.95
2021-08-11 08:29:00,FlowAlarm;OPCInstrumentWarning,0827.8,4.99,0.00,29.3,25.7,00.0,38.6,30.8,14.2,0046.55,0034.85
2021-08-11 08:30:00,FlowAlarm;OPCInstrumentWarning,0827.8,5.02,0.00,29.2,26.1,00.0,38.6,30.9,14.0,0046.60,0034.85
2021-08-11 08:31:00,FlowAlarm;OPCInstrumentWarning,0827.8,5.00,0.00,29.2,26.6,00.0,38.5,30.9,14.0,0046.38,0034.74
2021-08-11 08:32:00,FlowAlarm;OPCInstrumentWarning,0827.8,5.00,0.00,29.1,27.0,00.0,38.5,31.0,13.8,0046.07,0034.54
2021-08-11 08:33:00,FlowAlarm;OPCInstrumentWarning,0827.9,5.00,0.00,29.1,27.3,00.0,38.5,31.0,13.9,0045.76,0034.37
2021-08-11 08:34:00,FlowAlarm;OPCInstrumentWarning,0827.9,5.01,0.00,29.2,27.6,00.0,38.5,31.1,13.9,0045.56,0034.23
2021-08-11 08:35:00,FlowAlarm;OPCInstrumentWarning,0827.9,5.00,0.00,29.2,27.8,00.0,38.5,31.1,14.0,0044.80,0034.07
2021-08-11 08:36:00,FlowAlarm;OPCInstrumentWarning,0827.9,4.99,0.00,29.2,28.0,00.0,38.5,31.2,14.0,0044.37,0033.92
2021-08-11 08:37:00,FlowAlarm;OPCInstrumentWarning,0827.9,5.01,0.00,29.3,28.1,00.0,38.5,31.2,14.1,0044.34,0033.85
2021-08-11 08:38:00,FlowAlarm;OPCInstrumentWarning,0827.9,5.00,0.00,29.3,28.3,00.0,38.5,31.3,14.2,0043.89,0033.75
2021-08-11 08:39:00,FlowAlarm;OPCInstrumentWarning,0827.9,4.99,0.00,29.3,28.4,00.0,38.5,31.3,14.2,0043.46,0033.64
2021-08-11 08:40:00,FlowAlarm;OPCInstrumentWarning,0827.9,5.01,0.00,29.4,28.4,00.0,38.5,31.4,13.9,0043.03,0033.56
2021-08-11 08:41:00,FlowAlarm;OPCInstrumentWarning,0827.9,5.00,0.00,29.4,28.5,00.0,38.5,31.4,13.9,0042.81,0033.45
2021-08-11 08:42:00,FlowAlarm;OPCInstrumentWarning,0827.9,5.00,0.00,29.5,28.6,00.0,38.6,31.4,13.8,0042.67,0033.36
2021-08-11 08:43:00,FlowAlarm;OPCInstrumentWarning,0827.9,4.98,0.00,29.5,28.7,00.0,38.6,31.5,13.7,0042.75,0033.31
2021-08-11 08:44:00,FlowAlarm;OPCInstrumentWarning,0827.9,5.00,0.00,29.5,28.7,00.0,38.6,31.5,13.8,0042.82,0033.28
2021-08-11 08:45:00,FlowAlarm;OPCInstrumentWarning,0827.9,5.01,0.00,29.6,28.8,00.0,38.6,31.6,13.8,0043.09,0033.23
2021-08-11 08:46:00,FlowAlarm;OPCInstrumentWarning,0827.9,5.01,0.00,29.6,28.8,00.0,38.7,31.6,13.6,0043.06,0033.17
2021-08-11 08:47:00,FlowAlarm;OPCInstrumentWarning,0827.8,5.00,0.00,29.7,28.8,00.0,38.7,31.6,13.6,0043.22,0033.19
2021-08-11 08:48:00,FlowAlarm;OPCInstrumentWarning,0827.9,4.99,0.00,29.7,28.9,00.0,38.7,31.7,13.5,0043.13,0033.17
2021-08-11 08:49:00,FlowAlarm;OPCInstrumentWarning,0827.9,5.02,0.00,29.7,28.9,00.0,38.7,31.7,13.4,0043.31,0033.15
2021-08-11 08:50:00,FlowAlarm;OPCInstrumentWarning,0827.9,4.98,0.00,29.8,28.9,00.0,38.8,31.7,13.3,0043.23,0033.03
2021-08-11 08:51:00,FlowAlarm;OPCInstrumentWarning,0827.9,5.01,0.00,29.8,29.0,00.0,38.8,31.8,13.2,0043.17,0032.96
2021-08-11 08:52:00,FlowAlarm;OPCInstrumentWarning,0827.8,5.01,0.00,29.8,29.0,00.0,38.8,31.8,13.2,0043.01,0032.89
2021-08-11 08:53:00,FlowAlarm;OPCInstrumentWarning,0827.8,4.99,0.00,29.8,27.7,00.0,38.8,31.4,13.2,0042.91,0032.81
2021-08-11 08:54:00,FlowAlarm;OPCInstrumentWarning,0827.8,5.01,0.00,29.6,25.6,00.0,38.8,30.9,13.3,0042.72,0032.74
2021-08-11 08:55:00,FlowAlarm;OPCInstrumentWarning,0827.9,4.99,0.00,29.4,25.3,00.0,38.7,30.8,13.1,0043.00,0032.64
2021-08-11 08:56:00,FlowAlarm;OPCInstrumentWarning,0827.9,5.00,0.00,29.3,25.7,00.0,38.7,30.8,13.3,0043.03,0032.51
2021-08-11 08:57:00,FlowAlarm;OPCInstrumentWarning,0827.9,5.02,0.00,29.2,26.2,00.0,38.6,30.9,13.1,0043.17,0032.35
2021-08-11 08:58:00,FlowAlarm;OPCInstrumentWarning,0827.9,4.99,0.00,29.2,26.7,00.0,38.6,30.9,13.5,0044.03,0032.16
2021-08-11 08:59:00,FlowAlarm;OPCInstrumentWarning,0827.9,5.00,0.00,29.1,27.0,00.0,38.5,31.0,14.3,0043.92,0032.03
